Regional Weather Roundup
Issued by NWS

Home | Current Version | Previous Version | Text Only | Print | Product List | Glossary Off
Versions: 1 2 3 4 5 6 7 8 9 10 11 12 13 14 15 16 17 18 19 20 21 22 23 24 25 26 27 28 29 30 31 32 33 34 35 36 37 38 39 40 41 42 43 44 45 46 47 48 49 50

000
ASUS43 KMPX 232210
RWRMN
WEATHER ROUNDUP FOR MINNESOTA
NATIONAL WEATHER SERVICE TWIN CITIES/CHANHASSEN MN
400 PM CST FRI FEB 23 2018


NOTE: "FAIR" INDICATES FEW OR NO CLOUDS BELOW 12,000 FEET WITH NO
SIGNIFICANT WEATHER AND/OR OBSTRUCTIONS TO VISIBILITY. N/A MEANS
CURRENT SKY AND/OR WEATHER CONDITIONS ARE NOT AVAILABLE.

MNZ060>063-068>070-232300-
   Twin Cities Metro

CITY           SKY/WX    TMP DP  RH WIND       PRES   REMARKS
TWIN CITIES    FAIR      31  22  69 W10       30.21  WCI  22
ST PAUL        FAIR      32  20  61 SW14      30.21R WCI  22
CRYSTAL        FAIR      31  19  61 W12       30.19  WCI  22
BLAINE         SUNNY     34  21  60 W9        30.18S WCI  26
LAKEVILLE      FAIR      27  19  74 W10       30.22R WCI  17
EDEN PRAIRIE   FAIR      29  20  69 W7        30.20  WCI  22
SOUTH ST PAUL  FAIR      31  22  69 W8        30.20R WCI  24
LAKE ELMO      FAIR      32  23  69 W9        30.20R WCI  24
$$
MNZ001>005-007-008-013>017-022>024-027-028-232300-
   Northwest Minnesota

CITY           SKY/WX    TMP DP  RH WIND       PRES   REMARKS
BEMIDJI        FAIR      22  10  59 W10       30.14R WCI  11
HALLOCK        FAIR      18  10  73 W7        30.18S WCI   8
ROSEAU         FAIR      18   9  68 SW8       30.14R WCI   7
WARROAD        FAIR      19   7  58 SW12      30.12R WCI   7
THIEF RVR FALL FAIR      14   6  70 SW12      30.19R WCI   0
CROOKSTON      FAIR      16   9  73 W7        30.21S WCI   6
FOSSTON        FAIR      18   3  53 W10       30.18S WCI   6
DETROIT LAKES  FAIR      19  10  68 NW9       30.20S WCI   9
MOORHEAD       FAIR      12   5  73 W7        30.24S WCI   2
PARK RAPIDS    FAIR      23  12  62 W16       30.15  WCI  10
MAHNOMEN       FAIR      13   6  74 SW9       30.19S WCI   1
$$
MNZ006-009>011-018-025>026-232300-
   North Central Minnesota

CITY           SKY/WX    TMP DP  RH WIND       PRES   REMARKS
BAUDETTE       FAIR      24   5  44 W9        30.09  WCI  14
FLAG ISLAND    FAIR      21  12  68 CALM      30.07S
INTL FALLS     FAIR      28  16  60 W12       30.07R WCI  18
WASKISH        FAIR      19  10  68 SW14      30.12R WCI   6
LONGVILLE      CLOUDY    30  21  69 W5        30.12R WCI  25
GRAND RAPIDS   CLOUDY    29  21  72 W8        30.12R WCI  21
CRANE LAKE     CLOUDY    27  21  80 W3        30.09S
ORR            CLOUDY    27  19  74 W6        30.06R WCI  20
COOK             N/A     27  21  80 W8        30.08S WCI  18
WALKER         FAIR      28  13  54 NW12      30.12R WCI  18
$$
MNZ012-019>021-037-232300-
   Northeast Minnesota

CITY           SKY/WX    TMP DP  RH WIND       PRES   REMARKS
DULUTH         CLOUDY    32  22  66 W12       30.08R WCI  23
ELY            CLOUDY    27  19  74 W7        30.05S WCI  19
HIBBING        CLOUDY    27  20  75 W7        30.09  WCI  19
EVELETH        CLOUDY    28  21  74 W9        30.09R WCI  20
DULUTH HARBOR  PTSUNNY   34  25  69 SW7       30.12S WCI  28
TWO HARBORS    PTSUNNY   37  25  60 NW7       30.07R
SILVER BAY     CLOUDY    32  23  69 W7        30.05R WCI  26
GRAND MARAIS     N/A     32  22  66 W7        30.06R WCI  26
G MARAIS ARPRT CLOUDY    25  18  74 W6G16     30.00R WCI  18
$$
MNZ029>031-032-039>041-046>048-054>057-064-232300-
   West Central Minnesota

CITY           SKY/WX    TMP DP  RH WIND       PRES   REMARKS
FERGUS FALLS   FAIR      14   7  73 NW9       30.24R WCI   2
WHEATON        SUNNY     19   9  63 W9        30.28R WCI   9
MORRIS         SUNNY     19  12  73 W10       30.23S WCI   8
ALEXANDRIA     FAIR      21  14  74 NW14      30.20  WCI   8
ELBOW LAKE     FAIR      17  10  75 NW8       30.25R WCI   6
WADENA         FAIR      23  12  63 W10       30.18R WCI  12
GLENWOOD       FAIR      21  16  79 W12       30.21S WCI   9
APPLETON       SUNNY     21  14  73 NW9       30.25R WCI  11
BENSON         SUNNY     21  16  79 N12       30.26R WCI   9
ORTONVILLE     SUNNY     23  10  58 NW7       30.25R WCI  15
MADISON        SUNNY     27  19  74 NW9       30.25R WCI  17
WILLMAR        FAIR      21  18  86 W7        30.26S WCI  13
$$
MNZ033>034-036-042>043-049>051-058-059-232300-
   Central Minnesota

CITY           SKY/WX    TMP DP  RH WIND       PRES   REMARKS
ST CLOUD       FAIR      29  22  75 SW14      30.19  WCI  18
SAUK CENTRE    FAIR      23  17  78 W15       30.20S WCI  10
PAYNESVILLE    FAIR      25  20  79 W15       30.22R WCI  13
AITKIN         CLOUDY    30  19  64 W8        30.13R WCI  23
PINE RIVER     CLOUDY    28  19  69 NW6       30.17R WCI  22
BRAINERD       PTSUNNY   31  20  63 W10       30.15R WCI  22
STAPLES        FAIR      25  16  68 W9        30.17R WCI  15
LONG PRAIRIE   FAIR      27  19  74 SW9       30.18S HAZE    WCI  17
LITTLE FALLS   PTSUNNY   32  18  55 W8        30.18R WCI  25
LITCHFIELD     FAIR      27  21  80 W9        30.22S WCI  17
BUFFALO        FAIR      32  21  64 W9        30.21R WCI  24
MAPLE LAKE     FAIR      32  23  69 W8        30.21R WCI  25
HUTCHINSON     FAIR      26  21  82 W13       30.24R WCI  15
$$
MNZ037-044-045-052-053-232300-
   East Central Minnesota

CITY           SKY/WX    TMP DP  RH WIND       PRES   REMARKS
PRINCETON      FAIR      36  21  55 W12       30.18S
CAMBRIDGE        N/A     34  21  60 W7        30.18R WCI  28
RUSH CITY      FAIR      32  21  64 W6        30.17R WCI  27
MOOSE LAKE     PTSUNNY   34  21  60 W9        30.11R WCI  26
HINCKLEY       FAIR      34  23  64 W10       30.15R WCI  26
CLOQUET        CLOUDY    32  21  64 W9        30.09S WCI  24
MCGREGOR       CLOUDY    32  23  69 W3        30.13R
$$
MNZ071>073-080-081-089-090-097-098-232300-
   Southwest Minnesota

CITY           SKY/WX    TMP DP  RH WIND       PRES   REMARKS
MONTEVIDEO     CLOUDY    27  19  74 W5        30.26R WCI  21
GRANITE FALLS  CLOUDY    27  21  80 W9        30.28S WCI  17
CANBY          SUNNY     27  20  73 SW6       30.26S WCI  21
MARSHALL       SUNNY     27  19  72 W10       30.26R WCI  17
REDWOOD FALLS  CLOUDY    25  19  78 W16       30.26R WCI  12
OLIVIA         SUNNY     27  19  74 NW10      30.25R WCI  17
PIPESTONE      CLOUDY    21  18  86 NW8       30.23S WCI  12
WORTHINGTON    SUNNY     26  20  77 W12       30.25R WCI  16
JACKSON        PTSUNNY   27  21  80 W12       30.25S WCI  16
TRACY          MOSUNNY   28  22  80 W6        30.24S WCI  21
SLAYTON        SUNNY     25  20  83 W13       30.24S WCI  13
$$
MNZ065>067-074>077-082>085-091>093-232300-
   South Central Minnesota

CITY           SKY/WX    TMP DP  RH WIND       PRES   REMARKS
MANKATO        FAIR      25  19  78 W10       30.25R WCI  15
NEW ULM        SUNNY     25  19  80 W13       30.25R WCI  13
ST JAMES       SUNNY     25  19  80 W9        30.27R WCI  15
FAIRMONT       MOSUNNY   27  20  75 W9        30.26S WCI  18
GLENCOE        FAIR      26  22  82 W13       30.23R WCI  15
FARIBAULT      FAIR      25  19  80 SW10      30.23R WCI  15
OWATONNA       FAIR      25  19  80 SW8       30.23R WCI  16
WASECA         FAIR      23  19  86 SW8       30.26R FOG     WCI  14
ALBERT LEA     FAIR      25  19  80 W6        30.24R WCI  18
$$
MNZ078>079-086>088-094>096-232300-
   Southeast Minnesota

CITY           SKY/WX    TMP DP  RH WIND       PRES   REMARKS
ROCHESTER      CLOUDY    22  19  89 W12       30.22R FOG     WCI  10
RED WING       FAIR      30  19  64 W10       30.21R WCI  21
STANTON        FAIR      28  20  74 SW9       30.21R WCI  19
DODGE CENTER   CLOUDY    21  18  86 W9        30.22R FOG     WCI  11
WINONA         CLOUDY    30  25  80 NW6       30.24R WCI  24
AUSTIN         FAIR      25  19  80 W9        30.23R WCI  15
PRESTON        FAIR      24  20  86 W12       30.23R WCI  13
$$
ABBREVIATIONS USED IN REMARKS
   TC - TEMPERATURES IN CELSIUS
  WCI - WIND CHILL INDEX
   HX - HEAT INDEX
  VSB - VISIBILITY
$$




USA.gov is the U.S. government's official web portal to all federal, state and local government web resources and services.